Simultaneous Nadir Overpasses (SNOs) Predictions

Prediction of SNOs between AQUA and NOAA-19 Satellite Orbit:

Table of predicted SNOs for the next 14.0 days since TLE Epoch: 3/10/2017
Index Date (AQUA) Time (AQUA) Lat,Lon (AQUA) SZA (AQUA ) Date (NOAA-19) Time (NOAA-19) Lat,Lon (NOAA-19) SZA (NOAA-19 ) Distance(km) Time Diff (sec)
1 03/11/2017 22:27:58 80.97, 162.39 86.71 03/11/2017 22:27:50 80.96, 162.45 86.70 1.63 8
2 03/14/2017 04:01:45 -80.96,-100.96 94.20 03/14/2017 04:01:37 -80.96,-100.83 94.21 2.37 8
3 03/16/2017 09:35:32 80.96, -4.43 84.92 03/16/2017 09:35:35 80.96, -4.28 84.90 2.71 3
4 03/18/2017 15:09:19 -80.95, 92.22 96.00 03/18/2017 15:09:23 -80.96, 92.06 95.98 2.76 4
5 03/20/2017 20:43:06 80.96,-171.35 83.13 03/20/2017 20:43:21 80.96,-171.54 83.14 3.36 15
6 03/23/20
